Regional Weather Roundup
Issued by NWS Green Bay, WI

Home | Current Version | Previous Version | Graphics & Text | Print | Product List | Glossary Off
Versions: 1 2 3 4 5 6 7 8 9 10 11 12 13 14 15 16 17 18 19 20 21 22 23 24 25 26 27 28 29 30 31 32 33 34 35 36 37 38 39 40 41 42 43 44 45 46 47 48 49 50

000
ASUS43 KGRB 261000
RWRGRB

NORTH-CENTRAL AND NORTHEAST WISCONSIN REGIONAL WEATHER ROUNDUP
NATIONAL WEATHER SERVICE GREEN BAY WI
500 AM CDT THU APR 26 2018

WIZ005-009-010>012-018-019-261100-
NORTH CENTRAL WISCONSIN

CITY           SKY/WX    TMP DP  RH WIND       PRES   REMARKS
IRONWOOD       FAIR      42  24  49 SW10      29.84F
MANITOWISH WTR NOT AVBL
ARBOR VITAE    NOT AVBL
EAGLE RIVER    FAIR      27  23  83 CALM      29.87S
LAND O LAKES   FAIR      25  23  92 CALM      29.88F
RHINELANDER    FAIR      27  22  81 W3        29.88F
PHILLIPS       FAIR      28  25  89 CALM      29.87F
ANTIGO         NOT AVBL
TOMAHAWK       NOT AVBL
MERRILL        NOT AVBL
$$

WIZ013-073-261100-
NORTHEAST WISCONSIN

CITY           SKY/WX    TMP DP  RH WIND       PRES   REMARKS
IRON MOUNTAIN  FAIR      27  23  85 CALM      29.87S
MARINETTE      FAIR      30  28  92 SW3       29.92F
$$

WIZ017-030-035>037-045-261100-
CENTRAL WISCONSIN

CITY           SKY/WX    TMP DP  RH WIND       PRES   REMARKS
MEDFORD        NOT AVBL
WAUSAU         FAIR      31  27  85 CALM      29.88F
MOSINEE        NOT AVBL
MARSHFIELD     FAIR      35  29  78 SW5       29.89F
WISC RAPIDS    FAIR      32  27  81 CALM      29.92F
STEVENS POINT  NOT AVBL
WAUPACA        FAIR      35  31  85 CALM      29.93S
SHAWANO        FAIR      33  31  94 CALM      29.92S
CLINTONVILLE   FAIR      33  29  86 CALM      29.92F
WAUTOMA        FAIR      29  27  92 CALM      29.94S
$$

WIZ038-039-048-051-261100-
FOX VALLEY

CITY           SKY/WX    TMP DP  RH WIND       PRES   REMARKS
NWS GREEN BAY  FAIR      36  31  82 SW3       29.93S
APPLETON       NOT AVBL
OSHKOSH        FAIR      38  31  76 SW5       29.93S
FOND DU LAC    FAIR      35  30  82 S5        29.94S
$$

WIZ022-050-052-261100-
EAST CENTRAL WISCONSIN

CITY           SKY/WX    TMP DP  RH WIND       PRES   REMARKS
EPHRAIM        NOT AVBL
WASHINGTON ISL NOT AVBL
STURGEON BAY   FAIR      37  26  64 S8        29.92F
MANITOWOC      FAIR      33  27  78 CALM      29.94F
SHEBOYGAN      FAIR      32  29  88 SW5       29.94S
$$

LMZ563-521-522-541>543-261100-
LAKESHORE

STATION/POSITION TIME  TEMP    WIND        PRES    VSBY  WAVE
                       AIR SEA DIR/SP/G                  HT/PER
                 (UTC) (F)     (DEG/KT/KT) (MB)    (MI)  (FT/S)
KEWAUNEE LKSHORE 0930   38     220/  4/  5 1013.1S
NORTHPORT PIER   0940   31                 1013.2S
SISTER BAY LKSHO 0857   31        CALM       N/A
MENOMINEE LKSHOR 0930   37     200/  4/  6 1013.0F
$$




USA.gov is the U.S. government's official web portal to all federal, state and local government web resources and services.